Time,TemperatureF,DewpointF,PressureIn,WindDirection,WindDirectionDegrees,WindSpeedMPH,WindSpeedGustMPH,Humidity,HourlyPrecipIn,Conditions,Clouds,dailyrainin,SoftwareType,DateUTC
2013-04-24 00:05:00,39.1,35.8,30.08,ENE,67,5.0,14.0,88,0.00,,,-99.99,WeatherLink 5.5,2013-04-24 04:05:00,
2013-04-24 01:05:00,38.6,35.9,30.05,ENE,67,4.0,13.0,90,0.00,,,-99.99,WeatherLink 5.5,2013-04-24 05:05:00,
2013-04-24 02:05:00,39.6,36.6,30.03,ENE,67,3.0,16.0,89,0.00,,,-99.99,WeatherLink 5.5,2013-04-24 06:05:00,
2013-04-24 03:05:00,39.2,37.1,30.00,ENE,67,5.0,16.0,92,0.00,,,-99.99,WeatherLink 5.5,2013-04-24 07:05:00,
2013-04-24 04:05:00,39.9,37.2,29.99,ENE,67,3.0,14.0,90,0.00,,,-99.99,WeatherLink 5.5,2013-04-24 08:05:00,
2013-04-24 05:05:00,38.9,36.8,29.98,North,0,2.0,10.0,92,0.00,,,-99.99,WeatherLink 5.5,2013-04-24 09:05:00,
2013-04-24 06:05:00,37.8,36.0,29.97,ENE,67,2.0,7.0,93,0.00,,,-99.99,WeatherLink 5.5,2013-04-24 10:05:00,
2013-04-24 07:05:00,36.5,34.4,29.98,NW,315,3.0,6.0,92,0.00,,,-99.99,WeatherLink 5.5,2013-04-24 11:05:00,
2013-04-24 08:05:00,38.2,36.6,29.98,NW,315,4.0,10.0,94,0.00,,,-99.99,WeatherLink 5.5,2013-04-24 12:05:00,
2013-04-24 09:05:00,44.2,40.3,29.97,NW,315,5.0,12.0,86,0.00,,,-99.99,WeatherLink 5.5,2013-04-24 13:05:00,
2013-04-24 10:05:00,52.2,40.4,29.95,NW,315,5.0,11.0,64,0.00,,,-99.99,WeatherLink 5.5,2013-04-24 14:05:00,
2013-04-24 11:05:00,55.6,41.5,29.93,West,270,6.0,14.0,59,0.00,,,-99.99,WeatherLink 5.5,2013-04-24 15:05:00,
2013-04-24 12:05:00,59.8,43.6,29.91,WSW,247,6.0,13.0,55,0.00,,,-99.99,WeatherLink 5.5,2013-04-24 16:05:00,
2013-04-24 13:05:00,61.2,42.4,29.88,WSW,247,10.0,20.0,50,0.00,,,-99.99,WeatherLink 5.5,2013-04-24 17:05:00,
2013-04-24 14:05:00,-999.0,-99.9,29.86,WSW,247,8.0,14.0,-999,0.00,,,-99.99,WeatherLink 5.5,2013-04-24 18:05:00,
2013-04-24 15:05:00,70.4,44.9,29.80,West,270,6.0,17.0,40,0.00,,,-99.99,WeatherLink 5.5,2013-04-24 19:05:00,
2013-04-24 16:05:00,70.8,45.9,29.78,WSW,247,9.0,19.0,41,0.00,,,-99.99,WeatherLink 5.5,2013-04-24 20:05:00,
2013-04-24 17:05:00,69.9,45.8,29.75,SW,225,8.0,18.0,42,0.00,,,-99.99,WeatherLink 5.5,2013-04-24 21:05:00,
2013-04-24 18:05:00,68.9,46.1,29.76,SW,225,8.0,18.0,44,0.00,,,-99.99,WeatherLink 5.5,2013-04-24 22:05:00,
2013-04-24 19:05:00,65.6,47.0,29.75,SW,225,7.0,17.0,51,0.00,,,-99.99,WeatherLink 5.5,2013-04-24 23:05:00,
2013-04-24 20:05:00,61.0,47.0,29.74,South,180,6.0,16.0,60,0.00,,,-99.99,WeatherLink 5.5,2013-04-25 00:05:00,
2013-04-24 21:05:00,56.0,47.5,29.76,South,180,6.0,18.0,73,0.00,,,-99.99,WeatherLink 5.5,2013-04-25 01:05:00,
2013-04-24 22:05:00,52.9,47.2,29.77,SSW,202,7.0,22.0,81,0.00,,,-99.99,WeatherLink 5.5,2013-04-25 02:05:00,
2013-04-24 23:05:00,51.0,47.3,29.77,South,180,6.0,17.0,87,0.00,,,-99.99,WeatherLink 5.5,2013-04-25 03:05:00,